When you browse on this site, cookies collect data to enhance your experience and personalize the content and advertising you see.
Visit our Privacy Policy to learn more. By continuing to use the site, you agree to this use of cookies and data.
  • In Österreich
  • Länderverzeichnis
  • Für 7 Tage
  • Wassertemperatur
  • Wetterkarte
  • News
  • Widgets
  • user-avatar
    Anmelden

    Stündliche Wetter Quetame

    Heute, 23 November, Samstag

    Zeit Temperatur Niederschläge Wind Luftdruck Luftfeuchtigkeit
    00:00 +19°C° 0.5 mm 1 m/S 637 mmHg 95%
    01:00 +19°C° 0.5 mm 1 m/S 637 mmHg 95%
    02:00 +18°C° 0.1 mm 1 m/S 637 mmHg 94%
    03:00 +18°C° 0.1 mm 1 m/S 636 mmHg 94%
    04:00 +18°C° 0.1 mm 1 m/S 636 mmHg 93%
    05:00 +19°C° 0 mm 1 m/S 637 mmHg 91%
    06:00 +20°C° 0 mm 1 m/S 638 mmHg 90%
    07:00 +21°C° 0 mm 1 m/S 638 mmHg 88%
    08:00 +22°C° 0.1 mm 1 m/S 639 mmHg 81%
    09:00 +24°C° 0.1 mm 1 m/S 640 mmHg 75%
    10:00 +26°C° 0.1 mm 2 m/S 641 mmHg 69%
    11:00 +26°C° 0.8 mm 2 m/S 640 mmHg 74%
    12:00 +25°C° 0.8 mm 1 m/S 639 mmHg 79%
    13:00 +25°C° 0.8 mm 1 m/S 638 mmHg 85%
    14:00 +24°C° 1 mm 1 m/S 637 mmHg 88%
    15:00 +24°C° 1 mm 1 m/S 637 mmHg 90%
    16:00 +23°C° 1 mm 1 m/S 636 mmHg 93%
    17:00 +22°C° 0.3 mm 1 m/S 636 mmHg 95%
    18:00 +19°C° 0.3 mm 0 m/S 637 mmHg 96%
    19:00 +19°C° 0.3 mm 0 m/S 637 mmHg 97%
    20:00 +20°C° 0.2 mm 1 m/S 637 mmHg 96%
    21:00 +20°C° 0.2 mm 1 m/S 637 mmHg 95%
    22:00 +19°C° 0.2 mm 1 m/S 638 mmHg 95%
    23:00 +19°C° 0.1 mm 1 m/S 637 mmHg 94%

    Morgen, 24 November, Sonntag

    Zeit Temperatur Niederschläge Wind Luftdruck Luftfeuchtigkeit
    00:00 +19°C° 0.1 mm 1 m/S 637 mmHg 93%
    01:00 +19°C° 0.1 mm 1 m/S 637 mmHg 92%
    02:00 +19°C° 0.1 mm 1 m/S 637 mmHg 91%
    03:00 +18°C° 0.1 mm 1 m/S 636 mmHg 90%
    04:00 +18°C° 0.1 mm 1 m/S 636 mmHg 90%
    05:00 +19°C° 0.1 mm 1 m/S 637 mmHg 88%
    06:00 +19°C° 0.1 mm 1 m/S 638 mmHg 87%
    07:00 +20°C° 0.1 mm 1 m/S 638 mmHg 86%
    08:00 +22°C° 0.1 mm 1 m/S 639 mmHg 80%
    09:00 +24°C° 0.1 mm 1 m/S 640 mmHg 73%
    10:00 +26°C° 0.1 mm 2 m/S 640 mmHg 67%
    11:00 +26°C° 0.3 mm 2 m/S 639 mmHg 69%
    12:00 +26°C° 0.3 mm 2 m/S 638 mmHg 72%
    13:00 +26°C° 0.3 mm 2 m/S 637 mmHg 74%
    14:00 +25°C° 0.5 mm 2 m/S 637 mmHg 79%
    15:00 +24°C° 0.5 mm 1 m/S 636 mmHg 85%
    16:00 +23°C° 0.5 mm 1 m/S 636 mmHg 91%
    17:00 +22°C° 0.2 mm 1 m/S 636 mmHg 93%
    18:00 +21°C° 0.2 mm 1 m/S 636 mmHg 95%
    19:00 +20°C° 0.2 mm 1 m/S 636 mmHg 97%
    20:00 +19°C° 0 mm 1 m/S 637 mmHg 95%
    21:00 +19°C° 0 mm 1 m/S 637 mmHg 94%
    22:00 +18°C° 0 mm 1 m/S 637 mmHg 93%
    23:00 +18°C° 0.1 mm 1 m/S 637 mmHg 92%

    übermorgen, 25 November, Montag

    Zeit Temperatur Niederschläge Wind Luftdruck Luftfeuchtigkeit
    00:00 +18°C° 0.1 mm 1 m/S 637 mmHg 91%
    01:00 +18°C° 0.1 mm 1 m/S 636 mmHg 90%
    02:00 +18°C° 0.1 mm 1 m/S 636 mmHg 90%
    03:00 +18°C° 0.1 mm 1 m/S 636 mmHg 89%
    04:00 +18°C° 0.1 mm 1 m/S 636 mmHg 88%
    05:00 +19°C° 0 mm 1 m/S 636 mmHg 88%
    06:00 +19°C° 0 mm 1 m/S 637 mmHg 87%
    07:00 +18°C° 0 mm 0 m/S 638 mmHg 87%
    08:00 +22°C° 0.1 mm 1 m/S 638 mmHg 81%
    09:00 +24°C° 0.1 mm 1 m/S 639 mmHg 75%
    10:00 +25°C° 0.1 mm 1 m/S 639 mmHg 70%
    11:00 +25°C° 0.6 mm 1 m/S 638 mmHg 74%
    12:00 +25°C° 0.6 mm 2 m/S 637 mmHg 78%
    13:00 +25°C° 0.6 mm 2 m/S 636 mmHg 81%
    14:00 +25°C° 0.7 mm 2 m/S 636 mmHg 84%
    15:00 +24°C° 0.7 mm 1 m/S 635 mmHg 86%
    16:00 +24°C° 0.7 mm 1 m/S 635 mmHg 88%
    17:00 +22°C° 0.2 mm 1 m/S 635 mmHg 91%
    18:00 +21°C° 0.2 mm 1 m/S 635 mmHg 94%
    19:00 +20°C° 0.2 mm 1 m/S 635 mmHg 96%
    20:00 +19°C° 0.1 mm 1 m/S 636 mmHg 96%
    21:00 +19°C° 0.1 mm 1 m/S 636 mmHg 95%
    22:00 +18°C° 0.1 mm 1 m/S 636 mmHg 95%
    23:00 +19°C° 0.2 mm 1 m/S 636 mmHg 95%

    26 November, Dienstag

    Zeit Temperatur Niederschläge Wind Luftdruck Luftfeuchtigkeit
    00:00 +19°C° 0.2 mm 1 m/S 636 mmHg 95%
    01:00 +19°C° 0.2 mm 1 m/S 636 mmHg 94%
    02:00 +19°C° 0.3 mm 1 m/S 636 mmHg 95%
    03:00 +19°C° 0.3 mm 1 m/S 636 mmHg 95%
    04:00 +17°C° 0.3 mm 0 m/S 636 mmHg 95%
    05:00 +20°C° 0 mm 1 m/S 637 mmHg 95%
    06:00 +20°C° 0 mm 1 m/S 637 mmHg 94%
    07:00 +20°C° 0 mm 1 m/S 638 mmHg 93%
    08:00 +22°C° 0.1 mm 1 m/S 638 mmHg 88%
    09:00 +23°C° 0.1 mm 1 m/S 639 mmHg 83%
    10:00 +24°C° 0.1 mm 1 m/S 639 mmHg 78%
    11:00 +25°C° 0.8 mm 2 m/S 639 mmHg 81%
    12:00 +25°C° 0.8 mm 2 m/S 638 mmHg 84%
    13:00 +25°C° 0.8 mm 2 m/S 637 mmHg 87%
    14:00 +25°C° 0.7 mm 2 m/S 637 mmHg 87%
    15:00 +24°C° 0.7 mm 1 m/S 636 mmHg 87%
    16:00 +24°C° 0.7 mm 1 m/S 636 mmHg 88%
    17:00 +23°C° 0.3 mm 1 m/S 636 mmHg 91%
    18:00 +21°C° 0.3 mm 1 m/S 636 mmHg 94%
    19:00 +20°C° 0.3 mm 1 m/S 636 mmHg 96%
    20:00 +20°C° 0.1 mm 1 m/S 636 mmHg 96%
    21:00 +19°C° 0.1 mm 1 m/S 637 mmHg 95%
    22:00 +19°C° 0.1 mm 1 m/S 637 mmHg 94%
    23:00 +19°C° 0 mm 1 m/S 637 mmHg 94%

    27 November, Mittwoch

    Zeit Temperatur Niederschläge Wind Luftdruck Luftfeuchtigkeit
    00:00 +18°C° 0 mm 1 m/S 636 mmHg 93%
    01:00 +18°C° 0 mm 1 m/S 636 mmHg 92%
    02:00 +18°C° 0 mm 1 m/S 636 mmHg 92%
    03:00 +18°C° 0 mm 1 m/S 636 mmHg 91%
    04:00 +18°C° 0 mm 1 m/S 636 mmHg 91%
    05:00 +19°C° 0 mm 1 m/S 637 mmHg 89%
    06:00 +20°C° 0 mm 1 m/S 637 mmHg 87%
    07:00 +21°C° 0 mm 1 m/S 638 mmHg 85%
    08:00 +23°C° 0 mm 1 m/S 639 mmHg 76%
    09:00 +25°C° 0 mm 2 m/S 640 mmHg 67%
    10:00 +27°C° 0 mm 2 m/S 640 mmHg 58%
    11:00 +27°C° 0.5 mm 2 m/S 639 mmHg 65%
    12:00 +26°C° 0.5 mm 2 m/S 638 mmHg 71%
    13:00 +26°C° 0.5 mm 2 m/S 637 mmHg 77%
    14:00 +25°C° 0.8 mm 2 m/S 637 mmHg 81%
    15:00 +25°C° 0.8 mm 1 m/S 636 mmHg 85%
    16:00 +24°C° 0.8 mm 1 m/S 636 mmHg 88%
    17:00 +22°C° 0.4 mm 1 m/S 636 mmHg 91%
    18:00 +21°C° 0.4 mm 1 m/S 636 mmHg 94%
    19:00 +20°C° 0.4 mm 1 m/S 636 mmHg 96%
    20:00 +19°C° 0.2 mm 1 m/S 637 mmHg 96%
    21:00 +19°C° 0.2 mm 1 m/S 637 mmHg 95%
    22:00 +19°C° 0.2 mm 1 m/S 637 mmHg 95%
    23:00 +19°C° 0.1 mm 1 m/S 637 mmHg 94%

    28 November, Donnerstag

    Zeit Temperatur Niederschläge Wind Luftdruck Luftfeuchtigkeit
    00:00 +19°C° 0.1 mm 1 m/S 637 mmHg 93%
    01:00 +19°C° 0.1 mm 1 m/S 636 mmHg 92%
    02:00 +19°C° 0 mm 1 m/S 636 mmHg 91%
    03:00 +18°C° 0 mm 1 m/S 636 mmHg 89%
    04:00 +18°C° 0 mm 1 m/S 635 mmHg 88%
    05:00 +19°C° 0 mm 1 m/S 636 mmHg 86%
    06:00 +20°C° 0 mm 1 m/S 637 mmHg 83%
    07:00 +20°C° 0 mm 1 m/S 638 mmHg 81%
    08:00 +23°C° 0 mm 1 m/S 638 mmHg 71%
    09:00 +25°C° 0 mm 2 m/S 639 mmHg 62%
    10:00 +27°C° 0 mm 2 m/S 640 mmHg 52%
    11:00 +27°C° 0.1 mm 2 m/S 639 mmHg 54%
    12:00 +27°C° 0.1 mm 2 m/S 638 mmHg 56%
    13:00 +28°C° 0.1 mm 2 m/S 638 mmHg 59%
    14:00 +27°C° 0.2 mm 2 m/S 637 mmHg 65%
    15:00 +26°C° 0.2 mm 2 m/S 636 mmHg 71%
    16:00 +25°C° 0.2 mm 2 m/S 636 mmHg 78%
    17:00 +23°C° 0.1 mm 1 m/S 636 mmHg 83%
    18:00 +21°C° 0.1 mm 1 m/S 636 mmHg 88%
    19:00 +20°C° 0.1 mm 1 m/S 636 mmHg 94%
    20:00 +19°C° 0 mm 1 m/S 636 mmHg 89%
    21:00 +19°C° 0 mm 1 m/S 636 mmHg 85%
    22:00 +17°C° 0 mm 2 m/S 636 mmHg 80%
    23:00 +17°C° 0 mm 2 m/S 636 mmHg 78%
    Mehr zeigen